WB5OMR-9 Weather Reports


Display with metric or nautical units.
time (UTC)temp
F
wind
direction
speed
MPH
gust
MPH
rain 1hr
in
rain 24hr
in
rain mn
in
humidity
%
barometer
mb
20260503032723 63 0.0 0.0 0.00 0.00 0.00 72 1021.0
20260503031722 64 0.0 0.0 0.00 0.00 0.00 71 1021.0
20260503030719 64 0.0 0.0 0.00 0.00 0.00 70 1021.0
20260503025718 65 0.0 0.0 0.00 0.00 0.00 68 1021.0
20260503024717 65 0.0 0.0 0.00 0.00 0.00 67 1020.7
20260503022716 67 0.0 0.0 0.00 0.00 0.00 63 1020.7
20260503021709 67 0.0 0.0 0.00 0.00 0.00 62 1020.7
20260503015708 68 0.0 0.0 0.00 0.00 0.00 57 1020.0
20260503014706 69 0.0 0.0 0.00 0.00 0.00 56 1020.0
20260503011623 71 0.0 0.0 0.00 0.00 0.00 53 1019.6
20260503010622 72 0.0 0.0 0.00 0.00 0.00 50 1019.3
20260503005621 73 0.0 0.0 0.00 0.00 0.00 48 1019.3
20260503004620 74 0.0 0.0 0.00 0.00 0.00 46 1019.3
20260503003619 75 0.0 0.0 0.00 0.00 0.00 45 1019.3
20260503002618 75 0.0 0.0 0.00 0.00 0.00 44 1019.3
20260503001616 76 0.0 0.0 0.00 0.00 0.00 44 1019.3
20260503000615 77 0.0 0.0 0.00 0.00 0.00 43 1019.3
20260502235614 77 0.0 0.0 0.00 0.00 0.00 43 1019.3
20260502234613 78 0.0 0.0 0.00 0.00 0.00 43 1019.3
20260502233612 78 0.0 0.0 0.00 0.00 0.00 41 1019.3
20260502232611 77 0.0 0.0 0.00 0.00 0.00 40 1019.3
20260502231609 77 0.0 0.0 0.00 0.00 0.00 42 1019.3
20260502230608 77 0.0 0.0 0.00 0.00 0.00 43 1019.3
20260502225606 78 0.0 0.0 0.00 0.00 0.00 43 1019.3
20260502224605 78 0.0 0.0 0.00 0.00 0.00 43 1019.6
20260502223604 78 0.0 0.0 0.00 0.00 0.00 43 1019.3
20260502222603 79 0.0 0.0 0.00 0.00 0.00 42 1019.3
20260502221602 79 0.0 0.0 0.00 0.00 0.00 43 1019.3
20260502220600 82 0.0 0.0 0.00 0.00 0.00 39 1019.3
20260502215559 85 0.0 0.0 0.00 0.00 0.00 37 1019.3
20260502214558 84 0.0 0.0 0.00 0.00 0.00 39 1019.3
20260502213557 84 0.0 0.0 0.00 0.00 0.00 38 1019.6
20260502212556 85 0.0 0.0 0.00 0.00 0.00 38 1019.6
20260502211555 84 0.0 0.0 0.00 0.00 0.00 40 1019.6
20260502210554 84 0.0 0.0 0.00 0.00 0.00 39 1020.0
20260502205552 85 0.0 0.0 0.00 0.00 0.00 39 1020.3
20260502204551 85 0.0 0.0 0.00 0.00 0.00 43 1020.3
20260502203550 84 0.0 0.0 0.00 0.00 0.00 42 1020.3
20260502202506 84 0.0 0.0 0.00 0.00 0.00 41 1020.3
20260502201505 84 0.0 0.0 0.00 0.00 0.00 43 1020.7
20260502200504 84 0.0 0.0 0.00 0.00 0.00 41 1020.7
20260502195503 83 0.0 0.0 0.00 0.00 0.00 42 1020.7
20260502194502 82 0.0 0.0 0.00 0.00 0.00 44 1021.0
20260502193501 82 0.0 0.0 0.00 0.02 0.00 45 1021.0
20260502192500 81 0.0 0.0 0.00 0.02 0.00 45 1021.0
20260502191458 80 0.0 0.0 0.00 0.02 0.00 46 1021.0
20260502190457 79 0.0 0.0 0.00 0.02 0.00 48 1021.0
20260502185456 79 0.0 0.0 0.00 0.02 0.00 48 1021.0
20260502184455 78 0.0 0.0 0.00 0.02 0.00 46 1021.0
20260502183454 79 0.0 0.0 0.00 0.02 0.00 45 1021.0
20260502182453 79 0.0 0.0 0.00 0.02 0.00 48 1021.3
20260502181452 77 0.0 0.0 0.00 0.02 0.00 50 1021.3
20260502180451 76 0.0 0.0 0.00 0.02 0.00 47 1021.3
20260502170319 74 0.0 0.0 0.00 0.02 0.00 53 1022.0
20260502164153 74 0.0 0.0 0.00 0.04 0.00 53 1022.0
20260502163110 73 0.0 0.0 0.00 0.16 0.00 56 1022.0
20260502162108 72 0.0 0.0 0.00 0.37 0.00 55 1022.0
20260502161107 71 0.0 0.0 0.00 0.37 0.00 56 1022.0
20260502160106 70 0.0 0.0 0.00 0.37 0.00 57 1021.7
20260502152101 67 0.0 0.0 0.00 0.37 0.00 65 1021.3
20260502151018 66 0.0 0.0 0.00 0.37 0.00 67 1021.3
20260502122825 51 0.0 0.0 0.00 0.37 0.00 89 1019.0
20260502121742 51 0.0 0.0 0.00 0.41 0.00 89 1019.0
20260502120741 51 0.0 0.0 0.00 0.47 0.00 89 1018.6
20260502115739 51 0.0 0.0 0.00 0.47 0.00 89 1018.6
20260502114738 51 0.0 0.0 0.00 0.47 0.00 89 1018.6
20260502113737 51 0.0 0.0 0.00 0.47 0.00 89 1018.3
20260502112736 51 0.0 0.0 0.00 0.47 0.00 89 1018.3
20260502111653 51 0.0 0.0 0.00 0.47 0.00 89 1018.3
20260502110651 51 0.0 0.0 0.00 0.47 0.00 89 1018.3
20260502105650 51 0.0 0.0 0.00 0.47 0.00 89 1018.3
20260502104649 51 0.0 0.0 0.00 0.47 0.00 89 1018.3
20260502103648 51 0.0 0.0 0.00 0.49 0.00 89 1018.3
20260502102647 51 0.0 0.0 0.00 0.55 0.00 89 1018.3
20260502101604 51 0.0 0.0 0.00 0.61 0.00 89 1018.3
20260502100552 51 0.0 0.0 0.00 0.86 0.00 89 1018.3
20260502090545 51 0.0 0.0 0.00 1.26 0.00 88 1017.6
20260502071358 53 0.0 0.0 0.00 1.81 0.00 86 1017.3
20260502070315 53 0.0 0.0 0.00 1.81 0.00 85 1016.9
20260502065232 54 0.0 0.0 0.00 1.84 0.00 84 1017.3
20260502064231 54 0.0 0.0 0.00 1.84 0.00 84 1017.3
20260502063230 54 0.0 0.0 0.00 1.84 0.00 84 1017.3
20260502062229 55 0.0 0.0 0.00 1.84 0.00 84 1017.3
20260502061228 55 0.0 0.0 0.00 1.84 0.00 83 1016.9
20260502060226 55 0.0 0.0 0.00 1.84 0.00 83 1016.9
20260502055225 55 0.0 0.0 0.00 1.84 0.00 82 1016.9
20260502054142 56 0.0 0.0 0.00 1.86 0.00 82 1017.3
20260502053140 56 0.0 0.0 0.00 1.88 0.00 82 1017.3
20260502052139 56 0.0 0.0 0.00 1.98 0.00 82 1017.3
20260502051138 56 0.0 0.0 0.00 2.06 0.00 82 1017.3
20260502050137 56 0.0 0.0 0.00 2.08 0.00 82 1017.3
20260502045136 56 0.0 0.0 0.00 2.08 2.08 82 1016.6
20260502044135 57 0.0 0.0 0.00 2.08 2.08 81 1016.6
20260502043134 57 0.0 0.0 0.00 2.08 2.08 81 1016.6
20260502042133 57 0.0 0.0 0.00 2.08 2.08 80 1015.9
20260502041132 57 0.0 0.0 0.00 2.08 2.08 80 1016.6
20260502040130 57 0.0 0.0 0.00 2.08 2.08 80 1016.6
20260502035129 58 0.0 0.0 0.00 2.08 2.08 80 1016.6
20260502034128 58 0.0 0.0 0.00 2.08 2.08 80 1016.3